Skip Page Navigation
NASA JPL Caltech
NASA Logo - Jet Propulsion Laboratory + View the NASA Portal
+ Center for Near-Earth Object Studies
JPL Home Earth Solar System Stars & Galaxies Technology
JPL Solar System Dynamics
BODIES ORBITS EPHEMERIDES TOOLS PHYSICAL DATA DISCOVERY FAQ SITE MAP
JPL Small-Body Database Browser
Search: [ help ]  
351735 (2006 DW5)
Classification: Main-belt Asteroid          SPK-ID: 2351735
Ephemeris | Orbit Diagram | Orbital Elements | Mission Design | Physical Parameters | Discovery Circumstances ]

[ show orbit diagram ]
Orbital Elements at Epoch 2459000.5 (2020-May-31.0) TDB
Reference: JPL 6 (heliocentric ecliptic J2000)
 Element Value Uncertainty (1-sigma)   Units 
e .1713945823878456 9.5485e-08  
a 2.386373641005459 2.126e-08 au
q 1.977362127383966 2.3191e-07 au
i 3.862801758330272 7.3431e-06 deg
node 85.36770594910467 0.00013583 deg
peri 73.47922108436488 0.00013713 deg
M 310.1610786859258 1.9574e-05 deg
tp 2459186.911295732207
(2020-Dec-03.41129573)
7.4351e-05 TDB
period 1346.499175628097
3.69
1.7994e-05
4.926e-08
d
yr
n .2673599854467583 3.5728e-09 deg/d
Q 2.795385154626953 2.4904e-08 au
  Orbit Determination Parameters
   # obs. used (total)      151  
   data-arc span      5024 days (13.75 yr)  
   first obs. used      2006-01-23  
   last obs. used      2019-10-26  
   planetary ephem.      DE431  
   SB-pert. ephem.      SB431-N16  
   condition code      0  
   norm. resid. RMS      .63803  
   source      ORB  
   producer      Otto Matic  
   solution date      2019-Nov-08 10:49:24  

Additional Information
 Earth MOID = .990614 au 
 Jupiter MOID = 2.19392 au 
 T_jup = 3.512 
[ show covariance matrix ]

Ephemeris | Orbit Diagram | Orbital Elements | Mission Design | Physical Parameters | Discovery Circumstances ]

Physical Parameter Table
Parameter Symbol Value Units Sigma Reference Notes
absolute magnitude H 17.7   n/a MPO455546  

351735 (2006 DW5)          Discovered 2006-Feb-20 by CSS at Catalina
Reference: 20130127/Numbers.arcLast Updated: 2013-01-31

Alternate Designations
 2006 DW5 = 2010 CW178 
Ephemeris | Orbit Diagram | Orbital Elements | Mission Design | Physical Parameters | Discovery Circumstances ]
ABOUT SSD CREDITS/AWARDS PRIVACY/COPYRIGHT GLOSSARY LINKS
FirstGov 2020-Jul-12 07:52 UT
(server date/time)  
NASA Home Page
Site Manager:   Ryan S. Park
Webmaster  Alan B. Chamberlin